           7 14  16 29.71  +45 27.9   4.581  5.039    14.9 / 234  19.1  105  .01

           8 14  16 28.56  +45 19.2   4.584  5.042    15.0 / 233  19.1  101  .03

           9 14  16 27.42  +45 10.2   4.588  5.044    15.1 / 233  19.1   97  .07

          10 14  16 26.29  +45 01.0   4.592  5.047    15.1 / 232  19.1   93  .12

          11 14  16 25.18  +44 51.6   4.597  5.049    15.2 / 231  19.1   88  .19

          12 14  16 24.07  +44 42.0   4.601  5.052    15.2 / 230  19.1   83  .27

          13 14  16 22.98  +44 32.1   4.606  5.054    15.3 / 229  19.1   79  .36

          14 14  16 21.91  +44 22.1   4.611  5.057    15.3 / 228  19.1   74  .45

          15 14  16 20.84  +44 11.8   4.616  5.059    15.4 / 227  19.1   71  .55

          16 14  16 19.80  +44 01.4   4.621  5.062    15.4 / 226  19.1   68  .65

          17 14  16 18.76  +43 50.7   4.626  5.064    15.5 / 226  19.1   66  .75

          18 14  16 17.74  +43 39.9   4.632  5.067    15.5 / 225  19.1   65  .83

          19 14  16 16.74  +43 28.8   4.638  5.069    15.5 / 224  19.1   66  .91

          20 14  16 15.76  +43 17.6   4.644  5.072    15.6 / 223  19.1   68  .96

          21 14  16 14.78  +43 06.2   4.650  5.074    15.6 / 222  19.1   72  .99

          22 14  16 13.83  +42 54.6   4.656  5.077    15.6 / 221  19.1   78 1.00

          23 14  16 12.89  +42 42.9   4.663  5.079    15.7 / 221  19.1   84  .97

          24 14  16 11.97  +42 31.0   4.669  5.082    15.7 / 220  19.1   91  .91

          25 14  16 11.07  +42 18.9   4.676  5.085    15.7 / 219  19.1   97  .83

          26 14  16 10.18  +42 06.6   4.683  5.087    15.7 / 218  19.2  103  .74

          27 14  16 09.31  +41 54.2   4.690  5.090    15.8 / 217  19.2  109  .63

          28 14  16 08.46  +41 41.6   4.698  5.093    15.8 / 216  19.2  113  .52

          29 14  16 07.63  +41 28.9   4.705  5.095    15.8 / 216  19.2  116  .41

          30 14  16 06.82  +41 16.1   4.713  5.098    15.8 / 215  19.2  118  .31

     July  1 14  16 06.02  +41 03.1   4.721  5.100    15.8 / 214  19.2  118  .22

NAKANO

         **** Don't distribute anyone except personal use only ****

                (C) Copyright 2005 OAA/ComputingSection

write mail from CFAD0::NAKANO on 2005-05-20 00:44:27(JST).

 





◎C/2005 H1の軌道と予報位置です



  久万の中村彰正氏によって,5月4日に観測されました.氏のCCD全光度は,

19.3等でした.



    C/2005 H1 (LINEAR)                                                    

T 2005 Feb. 16.70622 TT                                 Nakano

q   5.1023938            (2000.0)            P               Q

                   Peri.  109.89252     -0.22525910     -0.31051299

                   Node    68.36876     -0.62546829     -0.68066253

e   1.0            Incl.   83.44210     +0.74702594     -0.66353614

From 40 observations 2005 Apr. 30-May 4.

 

Date/        TT  R.A.(2000) Decl.     Delta   r     Daily motion  Mag.  Moon Age

              h    h  m       。  ,                      ,  / PA 。  m1      。

2005 May   5 14  17 09.60  +48 02.8   4.727  5.137    11.5 / 265  19.0  103  .09

           6 14  17 08.46  +48 01.8   4.724  5.138    11.6 / 265  19.0  105  .04

           7 14  17 07.30  +48 00.7   4.721  5.138    11.8 / 264  19.0  106  .01

           8 14  17 06.14  +47 59.4   4.719  5.139    11.9 / 263  19.0  107  .00

           9 14  17 04.97  +47 57.8   4.716  5.140    12.0 / 262  19.0  106  .02

          10 14  17 03.78  +47 56.0   4.714  5.141    12.2 / 261  19.0  105  .05

          11 14  17 02.59  +47 54.0   4.712  5.142    12.3 / 260  19.0  103  .10

          12 14  17 01.39  +47 51.8   4.710  5.143    12.4 / 259  19.0  100  .17

          13 14  17 00.18  +47 49.3   4.708  5.144    12.5 / 258  19.0   97  .25

          14 14  16 58.96  +47 46.7   4.706  5.145    12.7 / 257  19.0   94  .33

          15 14  16 57.74  +47 43.7   4.705  5.146    12.8 / 256  19.0   90  .43

          16 14  16 56.51  +47 40.6   4.704  5.147    12.9 / 255  19.0   86  .52

          17 14  16 55.28  +47 37.2   4.702  5.148    13.0 / 254  19.0   82  .62

          18 14  16 54.04  +47 33.6   4.701  5.149    13.1 / 253  19.0   79  .71

          19 14  16 52.80  +47 29.7   4.700  5.150    13.3 / 252  19.0   76  .80

          20 14  16 51.55  +47 25.6   4.700  5.151    13.4 / 251  19.0   73  .87

          21 14  16 50.31  +47 21.3   4.699  5.152    13.5 / 250  19.0   72  .94

          22 14  16 49.06  +47 16.7   4.699  5.153    13.6 / 249  19.0   71  .98

          23 14  16 47.81  +47 11.9   4.699  5.154    13.7 / 248  19.0   72 1.00

          24 14  16 46.57  +47 06.8   4.698  5.155    13.8 / 248  19.0   74  .99

          25 14  16 45.32  +47 01.5   4.699  5.156    13.9 / 247  19.0   77  .96

          26 14  16 44.07  +46 56.0   4.699  5.158    14.0 / 246  19.0   81  .90

          27 14  16 42.83  +46 50.2   4.699  5.159    14.1 / 245  19.0   85  .81

          28 14  16 41.59  +46 44.2   4.700  5.160    14.2 / 244  19.0   90  .71

          29 14  16 40.35  +46 37.9   4.701  5.161    14.3 / 243  19.0   95  .60

          30 14  16 39.11  +46 31.4   4.702  5.162    14.4 / 242  19.0  100  .49

          31 14  16 37.88  +46 24.7   4.703  5.163    14.5 / 241  19.0  104  .38

     June  1 14  16 36.66  +46 17.7   4.704  5.164    14.6 / 240  19.0  108  .28

           2 14  16 35.44  +46 10.4   4.706  5.166    14.6 / 239  19.0  110  .19

           3 14  16 34.23  +46 03.0   4.707  5.167    14.7 / 239  19.0  111  .11

           4 14  16 33.03  +45 55.3   4.709  5.168    14.8 / 238  19.0  111  .06

           5 14  16 31.83  +45 47.3   4.711  5.169    14.9 / 237  19.0  110  .02

NAKANO

         **** Don't distribute anyone except personal use only ****

                (C) Copyright 2005 OAA/ComputingSection

write mail from CFAD0::NAKANO on 2005-05-05 23:03:05(JST).

 

戻ります。